Frenchville, ME

5:59 PM EDT on June 25, 2017 (GMT -0400)
Northern Aroostook Regional

Weather History for KFVE - March, 2014

Change the Weather History Date:

Sunday, March 2, 2014

  Actual Average Record
Temperature  
Mean Temperature 6 °F 18 °F  
Max Temperature 16 °F 27 °F 45 °F (1997)
Min Temperature -4 °F 10 °F -17 °F (2001)
Degree Days  
Heating Degree Days 59    
Month to date heating degree days 120  
Since 1 July heating degree days 7054  
Cooling Degree Days 0    
Month to date cooling degree days 0  
Year to date cooling degree days 0  
Moisture  
Dew Point 0 °F    
Average Humidity 69    
Maximum Humidity 92    
Minimum Humidity 44    
Precipitation  
Precipitation T in 0.03 in 0.80 in (1997)
Month to date precipitation T 0.06  
Year to date precipitation 2.92 2.63  
Sea Level Pressure  
Sea Level Pressure 29.96 in    
Wind  
Wind Speed 11 mph (NW)    
Max Wind Speed 24 mph    
Max Gust Speed 30 mph    
Visibility 7 miles    
Events Snow    
T = Trace of Precipitation, MM = Missing Value Source: NWS Daily Summary

Daily Weather History Graph

Daily Weather History Graph

Search for Another Location

Airport or City:

Trip Planner

Search our weather history database for the weather conditions in past years. The results will help you decide how hot, cold, wet, or windy it might be!

Date:

Astronomy

Mar. 02, 2014 Rise Set
Actual Time 6:11 AM EST 5:19 PM EST
Civil Twilight 5:40 AM EST 5:50 PM EST
Nautical Twilight 5:05 AM EST 6:26 PM EST
Astronomical Twilight 4:30 AM EST 7:01 PM EST
Moon 6:32 AM EST (3/2) 7:22 PM EST (3/2)
Length of Visible Light 12h 09m
Length of Day
11h 08m
Waxing Crescent, 3% of the Moon is Illuminated
Mar 2
Waxing Crescent
Mar 8
First Quarter
Mar 16
Full
Mar 23
Last Quarter
Mar 30
New

Hourly Weather History & Observations

Time (EST) Temp. Windchill Dew Point Humidity Pressure Visibility Wind Dir Wind Speed Gust Speed Precip Events Conditions
12:53 AM 16.0 °F 10.4 °F 5.0 °F 62% 29.92 in 10.0 mi SW 3.5 mph - N/A   Overcast
1:53 AM 15.1 °F - 6.1 °F 68% 29.91 in 10.0 mi Calm Calm - N/A   Overcast
2:53 AM 12.9 °F 2.6 °F 8.1 °F 81% 29.91 in 10.0 mi NNW 6.9 mph - N/A   Overcast
3:19 AM 12.9 °F 3.8 °F 10.0 °F 88% 29.85 in 2.5 mi NNW 5.8 mph - 0.00 in Snow Light Snow
3:29 AM 12.9 °F 2.6 °F 10.9 °F 92% 29.86 in 1.5 mi NW 6.9 mph - 0.00 in Snow Light Snow
3:47 AM 14.0 °F 2.9 °F 10.4 °F 86% 29.86 in 2.0 mi WNW 8.1 mph - 0.00 in Snow Light Snow
3:53 AM 14.0 °F 2.0 °F 10.9 °F 88% 29.91 in 3.0 mi WNW 9.2 mph - 0.00 in Snow Light Snow
4:06 AM 14.0 °F 1.2 °F 10.9 °F 88% 29.87 in 1.8 mi NW 10.4 mph - 0.00 in Snow Light Snow
4:08 AM 14.0 °F 0.5 °F 10.9 °F 88% 29.87 in 1.2 mi NNW 11.5 mph - 0.00 in Snow Light Snow
4:16 AM 12.9 °F -4.9 °F 10.0 °F 88% 29.87 in 1.5 mi NNW 19.6 mph 24.2 mph 0.00 in Snow Light Snow
4:18 AM 12.9 °F -5.3 °F 9.0 °F 84% 29.87 in 2.0 mi NNW 20.7 mph 24.2 mph 0.00 in Snow Light Snow
4:27 AM 12.9 °F -3.4 °F 9.0 °F 84% 29.88 in 3.0 mi NW 16.1 mph - 0.00 in Snow Light Snow
4:36 AM 12.9 °F -2.8 °F 9.0 °F 84% 29.88 in 2.0 mi NW 15.0 mph - 0.00 in Snow Light Snow
4:53 AM 10.9 °F -8.3 °F 6.1 °F 81% 29.95 in 6.0 mi NW 21.9 mph 28.8 mph 0.00 in Snow Light Snow
5:00 AM 10.9 °F -6.5 °F 6.1 °F 81% 29.89 in 9.0 mi NW 17.3 mph 29.9 mph 0.00 in   Overcast
5:53 AM 10.0 °F -8.1 °F 3.9 °F 76% 29.98 in 6.0 mi NW 18.4 mph 26.5 mph 0.00 in Snow Light Snow
6:53 AM 9.0 °F -7.9 °F 3.0 °F 77% 30.00 in 10.0 mi NW 15.0 mph - 0.00 in   Overcast
7:44 AM 8.1 °F -7.0 °F 3.0 °F 80% 29.96 in 3.0 mi NNW 11.5 mph - 0.00 in Snow Light Snow
7:53 AM 8.1 °F -7.0 °F 3.0 °F 80% 30.03 in 1.8 mi NNW 11.5 mph - 0.00 in Snow Light Snow
8:00 AM 9.0 °F -7.3 °F 3.0 °F 77% 29.97 in 3.0 mi NNW 13.8 mph - 0.00 in Snow Light Snow
8:21 AM 9.0 °F -7.3 °F -2.9 °F 59% 29.98 in 10.0 mi North 13.8 mph 24.2 mph 0.00 in   Scattered Clouds
8:53 AM 10.0 °F -4.5 °F -2.9 °F 56% 30.04 in 10.0 mi North 11.5 mph 23.0 mph 0.00 in   Clear
9:14 AM 9.0 °F -9.0 °F 1.0 °F 70% 29.99 in 9.0 mi NNW 17.3 mph - 0.00 in   Mostly Cloudy
9:25 AM 9.0 °F -7.9 °F -0.0 °F 67% 29.98 in 10.0 mi NW 15.0 mph - 0.00 in   Scattered Clouds
9:53 AM 10.0 °F -4.5 °F -2.0 °F 58% 30.05 in 10.0 mi NNW 11.5 mph - 0.00 in   Mostly Cloudy
10:16 AM 10.0 °F -7.1 °F -2.9 °F 56% 29.99 in 10.0 mi NW 16.1 mph - N/A   Scattered Clouds
10:53 AM 10.0 °F -4.5 °F -4.0 °F 53% 30.04 in 10.0 mi North 11.5 mph 19.6 mph N/A   Partly Cloudy
11:53 AM 10.0 °F -5.2 °F -6.0 °F 48% 30.03 in 10.0 mi NW 12.7 mph 21.9 mph N/A   Scattered Clouds
12:53 PM 10.9 °F -5.4 °F -6.0 °F 47% 30.01 in 10.0 mi NNW 15.0 mph - N/A   Clear
1:53 PM 10.9 °F -3.4 °F -7.1 °F 44% 29.99 in 10.0 mi NNW 11.5 mph - N/A   Scattered Clouds
2:53 PM 10.9 °F -5.9 °F -7.1 °F 44% 29.99 in 10.0 mi NNW 16.1 mph 20.7 mph N/A   Partly Cloudy
3:53 PM 9.0 °F -7.3 °F -8.0 °F 46% 29.99 in 10.0 mi NW 13.8 mph - N/A   Clear
4:53 PM 7.0 °F -9.8 °F -9.0 °F 48% 30.00 in 10.0 mi NNW 13.8 mph - N/A   Clear
5:53 PM 3.9 °F -12.2 °F -11.0 °F 50% 30.01 in 10.0 mi NNW 11.5 mph - N/A   Clear
6:53 PM 1.9 °F -10.6 °F -11.9 °F 52% 30.02 in 10.0 mi NNW 6.9 mph - N/A   Clear
7:53 PM -0.0 °F -17.1 °F -11.9 °F 57% 30.02 in 10.0 mi NNW 11.5 mph - N/A   Clear
8:53 PM -0.9 °F -15.3 °F -11.0 °F 62% 30.01 in 10.0 mi NNW 8.1 mph - N/A   Clear
9:53 PM -2.9 °F -15.0 °F -11.9 °F 65% 30.00 in 10.0 mi NW 5.8 mph - N/A   Clear
10:53 PM -2.9 °F -15.0 °F -11.9 °F 65% 29.99 in 10.0 mi NW 5.8 mph - N/A   Clear
11:53 PM -2.0 °F -12.2 °F -11.0 °F 66% 29.99 in 10.0 mi WNW 4.6 mph - N/A   Partly Cloudy